CW0795 Weather Reports


Display with metric or nautical units.
time (UTC)temp
F
wind
direction
speed
MPH
gust
MPH
rain 1hr
in
rain 24hr
in
rain mn
in
humidity
%
barometer
mb
20260510054542 52 248 0.0 0.0 0.00 0.00 0.00 92 1010.7
20260510053041 53 248 0.0 0.0 0.00 0.00 0.00 92 1010.7
20260510051541 53 248 0.0 0.0 0.00 0.00 0.00 91 1010.8
20260510044541 54 248 0.0 0.0 0.00 0.00 0.00 90 1010.7
20260510043039 55 248 0.0 2.0 0.00 0.00 0.00 90 1010.7
20260510034541 56 38 0.0 0.0 0.00 0.00 0.00 88 1010.4
20260510033039 57 38 0.0 0.0 0.00 0.00 0.00 87 1010.3
20260510030037 58 38 0.0 0.0 0.00 0.00 0.00 86 1010.3
20260510024537 59 38 0.0 0.0 0.00 0.00 0.00 84 1010.3
20260510021537 60 38 0.0 0.0 0.00 0.00 0.00 83 1010.0
20260510020035 61 38 0.0 0.0 0.00 0.00 0.00 83 1009.8
20260510014535 61 38 0.0 0.0 0.00 0.00 0.00 83 1009.8
20260510013034 61 38 0.0 0.0 0.00 0.00 0.00 79 1009.6
20260510011534 62 38 0.0 0.0 0.00 0.00 0.00 77 1009.4
20260510003033 66 38 0.0 0.0 0.00 0.00 0.00 73 1008.9
20260510000032 69 38 0.0 0.0 0.00 0.00 0.00 64 1008.6
20260509234531 71 38 0.0 0.0 0.00 0.00 0.00 59 1008.5
20260509233031 72 38 0.0 0.0 0.00 0.00 0.00 56 1008.5
20260509230030 74 57 2.0 2.0 0.00 0.00 0.00 58 1008.5
20260509224530 74 312 0.0 0.0 0.00 0.00 0.00 53 1008.4
20260509221529 75 289 2.0 2.0 0.00 0.00 0.00 46 1008.3
20260509220029 74 252 0.0 2.0 0.00 0.00 0.00 48 1008.4
20260509214528 74 195 0.0 2.0 0.00 0.00 0.00 48 1008.3
20260509213030 75 161 1.0 4.0 0.00 0.00 0.00 46 1008.3
20260509211527 74 247 2.0 5.0 0.00 0.00 0.00 47 1008.1
20260509210057 75 310 3.0 4.0 0.00 0.00 0.00 46 1008.2
20260509203026 77 228 1.0 8.0 0.00 0.00 0.00 47 1008.2
20260509201525 76 293 0.0 4.0 0.00 0.00 0.00 49 1008.2
20260509200055 76 275 1.0 5.0 0.00 0.00 0.00 52 1008.6
20260509194524 74 192 0.0 5.0 0.00 0.00 0.00 53 1008.6
20260509193024 72 243 1.0 6.0 0.00 0.00 0.00 57 1008.8
20260509190056 71 259 1.0 3.0 0.00 0.00 0.00 57 1009.3
20260509184553 71 192 0.0 5.0 0.00 0.00 0.00 57 1009.2
20260509183052 71 161 1.0 5.0 0.00 0.00 0.00 58 1009.3
20260509181552 71 257 1.0 3.0 0.00 0.00 0.00 58 1009.8
20260509180052 70 269 1.0 3.0 0.00 0.00 0.00 58 1010.1
20260509173051 70 167 3.0 4.0 0.00 0.00 0.00 58 1010.5
20260509171550 70 248 2.0 4.0 0.00 0.00 0.00 57 1010.4
20260509170050 70 193 3.0 7.0 0.00 0.00 0.00 58 1010.3
20260509163051 69 190 2.0 6.0 0.00 0.00 0.00 58 1010.6
20260509161550 69 288 2.0 6.0 0.00 0.00 0.00 58 1010.8
20260509160048 69 263 4.0 5.0 0.00 0.00 0.00 59 1010.7
20260509154548 69 307 2.0 5.0 0.00 0.00 0.00 57 1010.7
20260509153050 69 291 3.0 6.0 0.00 0.00 0.00 59 1010.9
20260509151547 69 152 2.0 5.0 0.00 0.00 0.00 57 1011.0
20260509150046 68 51 0.0 7.0 0.00 0.00 0.00 57 1011.1
20260509144546 67 217 3.0 5.0 0.00 0.00 0.00 62 1011.2
20260509143046 65 265 1.0 5.0 0.00 0.00 0.00 60 1011.4
20260509141547 64 145 1.0 3.0 0.00 0.00 0.00 63 1011.7
20260509140046 62 326 1.0 3.0 0.00 0.00 0.00 64 1011.7
20260509134544 61 102 0.0 4.0 0.00 0.00 0.00 64 1011.7
20260509133044 60 103 0.0 3.0 0.00 0.00 0.00 66 1011.7
20260509131543 59 248 1.0 6.0 0.00 0.00 0.00 64 1011.7
20260509130043 59 172 0.0 4.0 0.00 0.00 0.00 63 1011.6
20260509124543 59 124 1.0 6.0 0.00 0.00 0.00 63 1011.7
20260509123042 59 194 2.0 4.0 0.00 0.00 0.00 61 1011.7
20260509121543 59 236 0.0 2.0 0.00 0.00 0.00 67 1011.8
20260509120041 58 13 0.0 4.0 0.00 0.00 0.00 62 1011.9
20260509114542 58 112 1.0 2.0 0.00 0.00 0.00 63 1011.7
20260509113040 58 82 0.0 3.0 0.00 0.00 0.00 66 1011.7
20260509111540 57 278 0.0 4.0 0.00 0.00 0.00 64 1011.4
20260509110040 57 65 0.0 3.0 0.00 0.00 0.00 66 1011.4
20260509104539 57 315 0.0 3.0 0.00 0.00 0.00 64 1011.3
20260509103038 57 173 0.0 1.0 0.00 0.00 0.00 63 1011.3
20260509101538 57 173 0.0 3.0 0.00 0.00 0.00 62 1011.2
20260509100039 57 289 0.0 2.0 0.00 0.00 0.00 61 1011.1
20260509094539 57 301 0.0 3.0 0.00 0.00 0.00 60 1011.1
20260509091538 57 312 0.0 3.0 0.00 0.00 0.00 61 1011.5
20260509090036 57 181 0.0 4.0 0.00 0.00 0.00 61 1011.5
20260509084535 57 200 1.0 2.0 0.00 0.00 0.00 61 1011.5
20260509083035 57 141 1.0 3.0 0.00 0.00 0.00 61 1011.6
20260509080034 58 213 1.0 3.0 0.00 0.00 0.00 61 1011.8
20260509074535 58 162 1.0 3.0 0.00 0.00 0.00 58 1012.0